Time,TemperatureF,DewpointF,PressureIn,WindDirection,WindDirectionDegrees,WindSpeedMPH,WindSpeedGustMPH,Humidity,HourlyPrecipIn,Conditions,Clouds,dailyrainin,SoftwareType,DateUTC
2013-03-09 00:02:00,22.0,15.0,30.29,NE,45,0.0,0.0,74,0.00,,,0.10,,2013-03-09 05:02:00,
2013-03-09 00:12:00,22.0,15.0,30.29,NE,45,0.0,0.0,74,0.00,,,0.10,,2013-03-09 05:12:00,
2013-03-09 00:22:00,21.0,14.0,30.28,NE,45,0.0,0.0,73,0.00,,,0.10,,2013-03-09 05:22:00,
2013-03-09 00:32:00,20.0,13.0,30.29,NE,45,0.0,0.0,74,0.00,,,0.10,,2013-03-09 05:32:00,
2013-03-09 00:42:00,20.0,13.0,30.29,NE,45,0.0,0.0,74,0.00,,,0.10,,2013-03-09 05:42:00,
2013-03-09 00:53:00,19.0,12.0,30.28,ENE,67,0.0,3.0,75,0.00,,,0.10,,2013-03-09 05:53:00,
2013-03-09 01:02:00,19.0,13.0,30.29,ENE,67,0.0,0.0,76,0.00,,,0.10,,2013-03-09 06:02:00,
2013-03-09 01:11:00,19.0,13.0,30.29,ENE,67,0.0,0.0,76,0.00,,,0.10,,2013-03-09 06:11:00,
2013-03-09 01:22:00,19.0,13.0,30.29,ENE,67,0.0,0.0,76,0.00,,,0.10,,2013-03-09 06:22:00,
2013-03-09 01:32:00,19.0,13.0,30.29,ENE,67,2.0,4.0,77,0.00,,,0.10,,2013-03-09 06:32:00,
2013-03-09 01:42:00,19.0,13.0,30.29,ENE,67,2.0,4.0,77,0.00,,,0.10,,2013-03-09 06:42:00,
2013-03-09 01:52:00,19.0,13.0,30.29,ENE,67,2.0,3.0,77,0.00,,,0.10,,2013-03-09 06:52:00,
2013-03-09 02:01:00,20.0,14.0,30.28,ENE,67,2.0,3.0,78,0.00,,,0.10,,2013-03-09 07:01:00,
2013-03-09 02:11:00,20.0,14.0,30.28,ENE,67,2.0,3.0,78,0.00,,,0.10,,2013-03-09 07:11:00,
2013-03-09 02:21:00,21.0,16.0,30.28,NE,45,0.0,0.0,80,0.00,,,0.10,,2013-03-09 07:21:00,
2013-03-09 02:32:00,21.0,16.0,30.28,NE,45,0.0,0.0,79,0.00,,,0.10,,2013-03-09 07:32:00,
2013-03-09 02:42:00,21.0,16.0,30.28,NE,45,0.0,0.0,79,0.00,,,0.10,,2013-03-09 07:42:00,
2013-03-09 02:52:00,20.0,15.0,30.27,NE,45,0.0,0.0,79,0.00,,,0.10,,2013-03-09 07:52:00,
2013-03-09 03:01:00,21.0,16.0,30.27,NE,45,0.0,0.0,80,0.00,,,0.10,,2013-03-09 08:01:00,
2013-03-09 03:11:00,21.0,16.0,30.27,NE,45,0.0,0.0,80,0.00,,,0.10,,2013-03-09 08:11:00,
2013-03-09 03:22:00,22.0,17.0,30.27,NE,45,0.0,0.0,80,0.00,,,0.10,,2013-03-09 08:22:00,
2013-03-09 03:32:00,23.0,18.0,30.27,NE,45,0.0,0.0,80,0.00,,,0.10,,2013-03-09 08:32:00,
2013-03-09 03:42:00,23.0,18.0,30.27,NE,45,0.0,0.0,80,0.00,,,0.10,,2013-03-09 08:42:00,
2013-03-09 03:52:00,23.0,18.0,30.27,NE,45,0.0,0.0,80,0.00,,,0.10,,2013-03-09 08:52:00,
2013-03-09 04:02:00,24.0,19.0,30.28,NNE,22,0.0,2.0,81,0.00,,,0.10,,2013-03-09 09:02:00,
2013-03-09 04:12:00,24.0,19.0,30.28,NNE,22,0.0,2.0,81,0.00,,,0.10,,2013-03-09 09:12:00,
2013-03-09 04:21:00,25.0,20.0,30.29,NNE,22,0.0,2.0,81,0.00,,,0.10,,2013-03-09 09:21:00,
2013-03-09 04:32:00,26.0,21.0,30.29,NNE,22,0.0,0.0,81,0.00,,,0.10,,2013-03-09 09:32:00,
2013-03-09 04:42:00,26.0,21.0,30.29,NNE,22,0.0,0.0,81,0.00,,,0.10,,2013-03-09 09:42:00,
2013-03-09 04:52:00,26.0,21.0,30.29,NNE,22,0.0,0.0,81,0.00,,,0.10,,2013-03-09 09:52:00,
2013-03-09 05:01:00,26.0,21.0,30.29,NNE,22,0.0,0.0,81,0.00,,,0.10,,2013-03-09 10:01:00,
2013-03-09 05:11:00,26.0,21.0,30.29,NNE,22,0.0,0.0,81,0.00,,,0.10,,2013-03-09 10:11:00,
2013-03-09 05:21:00,27.0,22.0,30.29,NNE,22,0.0,0.0,81,0.00,,,0.10,,2013-03-09 10:21:00,
2013-03-09 05:32:00,27.0,22.0,30.29,North,0,0.0,3.0,81,0.00,,,0.10,,2013-03-09 10:32:00,
2013-03-09 05:42:00,27.0,22.0,30.29,North,0,0.0,3.0,81,0.00,,,0.10,,2013-03-09 10:42:00,
2013-03-09 05:52:00,27.0,22.0,30.29,NNW,343,2.0,4.0,81,0.00,,,0.10,,2013-03-09 10:52:00,
2013-03-09 06:01:00,26.0,21.0,30.30,North,0,0.0,0.0,81,0.00,,,0.10,,2013-03-09 11:01:00,
2013-03-09 06:11:00,26.0,21.0,30.30,North,0,0.0,0.0,81,0.00,,,0.10,,2013-03-09 11:11:00,
2013-03-09 06:21:00,26.0,21.0,30.29,North,0,0.0,0.0,81,0.00,,,0.10,,2013-03-09 11:21:00,
2013-03-09 06:32:00,26.0,21.0,30.29,North,0,0.0,0.0,81,0.00,,,0.10,,2013-03-09 11:32:00,
2013-03-09 06:42:00,26.0,21.0,30.29,North,0,0.0,0.0,81,0.00,,,0.10,,2013-03-09 11:42:00,
2013-03-09 06:52:00,26.0,21.0,30.29,NNW,337,0.0,0.0,81,0.00,,,0.10,,2013-03-09 11:52:00,
2013-03-09 07:02:00,26.0,21.0,30.30,ESE,112,0.0,0.0,81,0.00,,,0.10,,2013-03-09 12:02:00,
2013-03-09 07:11:00,26.0,21.0,30.30,ESE,112,0.0,0.0,81,0.00,,,0.10,,2013-03-09 12:11:00,
2013-03-09 07:21:00,27.0,22.0,30.30,ESE,112,0.0,0.0,81,0.00,,,0.10,,2013-03-09 12:21:00,
2013-03-09 07:32:00,27.0,22.0,30.31,NW,315,0.0,0.0,81,0.00,,,0.10,,2013-03-09 12:32:00,
2013-03-09 07:42:00,27.0,22.0,30.31,NW,315,0.0,0.0,81,0.00,,,0.10,,2013-03-09 12:42:00,
2013-03-09 07:52:00,27.0,22.0,30.31,WNW,292,0.0,0.0,81,0.00,,,0.10,,2013-03-09 12:52:00,
2013-03-09 08:02:00,27.0,22.0,30.32,West,270,0.0,0.0,81,0.00,,,0.10,,2013-03-09 13:02:00,
2013-03-09 08:11:00,27.0,22.0,30.32,West,270,0.0,0.0,81,0.00,,,0.10,,2013-03-09 13:11:00,
2013-03-09 08:21:00,27.0,22.0,30.32,NW,315,0.0,0.0,81,0.00,,,0.10,,2013-03-09 13:21:00,
2013-03-09 08:32:00,28.0,23.0,30.33,NNW,345,3.0,3.0,80,0.00,,,0.10,,2013-03-09 13:32:00,
2013-03-09 08:42:00,28.0,23.0,30.33,NNW,345,3.0,3.0,80,0.00,,,0.10,,2013-03-09 13:42:00,
2013-03-09 08:52:00,29.0,24.0,30.33,North,0,2.0,3.0,81,0.00,,,0.10,,2013-03-09 13:52:00,
2013-03-09 09:01:00,30.0,25.0,30.32,North,0,0.0,2.0,80,0.00,,,0.10,,2013-03-09 14:01:00,
2013-03-09 09:11:00,30.0,25.0,30.32,North,0,0.0,2.0,80,0.00,,,0.10,,2013-03-09 14:11:00,
2013-03-09 09:21:00,31.0,26.0,30.32,WSW,247,0.0,1.0,80,0.00,,,0.10,,2013-03-09 14:21:00,
2013-03-09 09:32:00,34.0,28.0,30.33,NNW,337,0.0,1.0,77,0.00,,,0.10,,2013-03-09 14:32:00,
2013-03-09 09:42:00,34.0,28.0,30.33,NNW,337,0.0,1.0,77,0.00,,,0.10,,2013-03-09 14:42:00,
2013-03-09 09:52:00,34.0,27.0,30.33,North,350,1.0,2.0,74,0.00,,,0.10,,2013-03-09 14:52:00,
2013-03-09 10:02:00,36.0,28.0,30.32,NNW,337,1.0,1.0,72,0.02,,,0.12,,2013-03-09 15:02:00,
2013-03-09 10:12:00,36.0,28.0,30.32,NNW,337,1.0,1.0,72,0.02,,,0.12,,2013-03-09 15:12:00,
2013-03-09 10:22:00,35.0,26.0,30.32,NE,45,0.0,0.0,70,0.02,,,0.12,,2013-03-09 15:22:00,
2013-03-09 10:32:00,35.0,27.0,30.33,NNW,347,2.0,3.0,71,0.02,,,0.12,,2013-03-09 15:32:00,
2013-03-09 10:42:00,35.0,27.0,30.33,NNW,347,2.0,3.0,71,0.02,,,0.12,,2013-03-09 15:42:00,
2013-03-09 10:52:00,35.0,26.0,30.33,North,0,2.0,3.0,70,0.02,,,0.12,,2013-03-09 15:52:00,
2013-03-09 11:01:00,36.0,27.0,30.33,North,354,3.0,4.0,69,0.00,,,0.12,,2013-03-09 16:01:00,
2013-03-09 11:11:00,36.0,27.0,30.33,North,354,3.0,4.0,69,0.00,,,0.12,,2013-03-09 16:11:00,
2013-03-09 11:21:00,36.0,26.0,30.33,NNW,337,2.0,4.0,68,0.00,,,0.12,,2013-03-09 16:21:00,
2013-03-09 11:32:00,37.0,27.0,30.32,NNW,343,2.0,3.0,66,0.00,,,0.12,,2013-03-09 16:32:00,
2013-03-09 11:42:00,37.0,27.0,30.32,NNW,343,2.0,3.0,66,0.00,,,0.12,,2013-03-09 16:42:00,
2013-03-09 11:52:00,38.0,27.0,30.32,ESE,115,2.0,4.0,65,0.00,,,0.12,,2013-03-09 16:52:00,
2013-03-09 12:01:00,39.0,28.0,30.31,SW,233,3.0,5.0,64,0.00,,,0.12,,2013-03-09 17:01:00,
2013-03-09 12:11:00,39.0,28.0,30.31,SW,233,3.0,5.0,64,0.00,,,0.12,,2013-03-09 17:11:00,
2013-03-09 12:22:00,39.0,27.0,30.30,West,266,3.0,4.0,62,0.00,,,0.12,,2013-03-09 17:22:00,
2013-03-09 12:32:00,40.0,27.0,30.30,NNW,345,2.0,4.0,60,0.00,,,0.12,,2013-03-09 17:32:00,
2013-03-09 12:42:00,40.0,27.0,30.30,NNW,345,2.0,4.0,60,0.00,,,0.12,,2013-03-09 17:42:00,
2013-03-09 12:52:00,40.0,27.0,30.29,NNW,344,3.0,4.0,59,0.00,,,0.08,,2013-03-09 17:52:00,
2013-03-09 13:02:00,41.0,27.0,30.29,SW,228,2.0,5.0,57,0.00,,,0.06,,2013-03-09 18:02:00,
2013-03-09 13:11:00,41.0,27.0,30.29,SW,228,2.0,5.0,57,0.00,,,0.06,,2013-03-09 18:11:00,
2013-03-09 13:21:00,42.0,27.0,30.29,West,272,2.0,5.0,55,0.00,,,0.02,,2013-03-09 18:21:00,
2013-03-09 13:32:00,42.0,27.0,30.29,SW,221,3.0,8.0,54,0.00,,,0.02,,2013-03-09 18:32:00,
2013-03-09 13:42:00,42.0,27.0,30.29,SW,221,3.0,8.0,54,0.00,,,0.02,,2013-03-09 18:42:00,
2013-03-09 13:52:00,42.0,26.0,30.29,SSW,212,4.0,7.0,53,0.00,,,0.02,,2013-03-09 18:52:00,
2013-03-09 14:01:00,42.0,25.0,30.28,WNW,298,2.0,6.0,51,0.00,,,0.02,,2013-03-09 19:01:00,
2013-03-09 14:12:00,42.0,25.0,30.28,WNW,298,2.0,6.0,51,0.00,,,0.02,,2013-03-09 19:12:00,
2013-03-09 14:22:00,42.0,25.0,30.28,NW,325,3.0,6.0,51,0.00,,,0.02,,2013-03-09 19:22:00,
2013-03-09 14:32:00,42.0,25.0,30.27,NW,326,3.0,6.0,51,0.00,,,0.02,,2013-03-09 19:32:00,
2013-03-09 14:42:00,42.0,25.0,30.27,NW,326,3.0,6.0,51,0.00,,,0.02,,2013-03-09 19:42:00,
2013-03-09 14:52:00,42.0,26.0,30.27,NNW,331,2.0,6.0,52,0.00,,,0.02,,2013-03-09 19:52:00,
2013-03-09 15:01:00,43.0,26.0,30.27,NNW,343,3.0,6.0,51,0.00,,,0.02,,2013-03-09 20:01:00,
2013-03-09 15:11:00,43.0,26.0,30.27,NNW,343,3.0,6.0,51,0.00,,,0.02,,2013-03-09 20:11:00,
2013-03-09 15:22:00,43.0,26.0,30.27,NNW,334,3.0,5.0,50,0.00,,,0.02,,2013-03-09 20:22:00,
2013-03-09 15:32:00,43.0,26.0,30.27,NNW,337,0.0,6.0,50,0.00,,,0.02,,2013-03-09 20:32:00,
2013-03-09 15:42:00,43.0,26.0,30.27,NNW,337,0.0,6.0,50,0.00,,,0.02,,2013-03-09 20:42:00,
2013-03-09 15:52:00,43.0,26.0,30.27,WSW,254,4.0,6.0,50,0.00,,,0.02,,2013-03-09 20:52:00,
2013-03-09 16:02:00,43.0,25.0,30.27,North,2,3.0,4.0,49,0.00,,,0.02,,2013-03-09 21:02:00,
2013-03-09 16:12:00,43.0,25.0,30.27,North,2,3.0,4.0,49,0.00,,,0.02,,2013-03-09 21:12:00,
2013-03-09 16:22:00,43.0,25.0,30.27,WSW,243,1.0,4.0,49,0.00,,,0.02,,2013-03-09 21:22:00,
2013-03-09 16:32:00,46.0,27.0,30.27,NNW,331,2.0,4.0,47,0.00,,,0.02,,2013-03-09 21:32:00,
2013-03-09 16:42:00,46.0,27.0,30.27,NNW,331,2.0,4.0,47,0.00,,,0.02,,2013-03-09 21:42:00,
2013-03-09 16:52:00,45.0,25.0,30.27,NNW,337,1.0,3.0,46,0.00,,,0.02,,2013-03-09 21:52:00,
2013-03-09 17:01:00,44.0,25.0,30.26,NW,315,0.0,3.0,46,0.00,,,0.02,,2013-03-09 22:01:00,
2013-03-09 17:11:00,44.0,25.0,30.26,NW,315,0.0,3.0,46,0.00,,,0.02,,2013-03-09 22:11:00,
2013-03-09 17:21:00,43.0,24.0,30.26,NNW,337,0.0,0.0,47,0.00,,,0.02,,2013-03-09 22:21:00,
2013-03-09 17:32:00,41.0,23.0,30.26,NNW,337,0.0,0.0,48,0.00,,,0.02,,2013-03-09 22:32:00,
2013-03-09 17:42:00,41.0,23.0,30.26,NNW,337,0.0,0.0,48,0.00,,,0.02,,2013-03-09 22:42:00,
2013-03-09 17:52:00,40.0,22.0,30.25,NNW,337,0.0,0.0,49,0.00,,,0.02,,2013-03-09 22:52:00,
2013-03-09 18:01:00,38.0,23.0,30.25,ENE,67,0.0,0.0,54,0.00,,,0.02,,2013-03-09 23:01:00,
2013-03-09 18:11:00,38.0,23.0,30.25,ENE,67,0.0,0.0,54,0.00,,,0.02,,2013-03-09 23:11:00,
2013-03-09 18:21:00,35.0,22.0,30.25,ENE,67,0.0,0.0,58,0.00,,,0.02,,2013-03-09 23:21:00,
2013-03-09 18:32:00,34.0,22.0,30.24,ENE,67,0.0,0.0,61,0.00,,,0.02,,2013-03-09 23:32:00,
2013-03-09 18:42:00,34.0,22.0,30.24,ENE,67,0.0,0.0,61,0.00,,,0.02,,2013-03-09 23:42:00,
2013-03-09 18:52:00,33.0,22.0,30.24,ENE,67,1.0,4.0,64,0.00,,,0.02,,2013-03-09 23:52:00,
2013-03-09 19:01:00,32.0,22.0,30.23,ENE,67,2.0,4.0,65,0.00,,,0.02,,2013-03-10 00:01:00,
2013-03-09 19:11:00,32.0,22.0,30.23,ENE,67,2.0,4.0,65,0.00,,,0.02,,2013-03-10 00:11:00,
2013-03-09 19:22:00,32.0,22.0,30.24,ENE,67,0.0,0.0,65,0.00,,,0.02,,2013-03-10 00:22:00,
2013-03-09 19:32:00,32.0,21.0,30.24,ENE,67,0.0,0.0,63,0.00,,,0.02,,2013-03-10 00:32:00,
2013-03-09 19:42:00,32.0,21.0,30.24,ENE,67,0.0,0.0,63,0.00,,,0.02,,2013-03-10 00:42:00,
2013-03-09 19:52:00,32.0,20.0,30.23,ENE,67,0.0,0.0,62,0.00,,,0.02,,2013-03-10 00:52:00,
2013-03-09 20:01:00,31.0,20.0,30.24,ENE,67,0.0,0.0,63,0.00,,,0.02,,2013-03-10 01:01:00,
2013-03-09 20:11:00,31.0,20.0,30.24,ENE,67,0.0,0.0,63,0.00,,,0.02,,2013-03-10 01:11:00,
2013-03-09 20:21:00,31.0,20.0,30.24,ENE,67,0.0,0.0,63,0.00,,,0.02,,2013-03-10 01:21:00,
2013-03-09 20:32:00,31.0,20.0,30.24,ENE,67,0.0,0.0,64,0.00,,,0.02,,2013-03-10 01:32:00,
2013-03-09 20:42:00,31.0,20.0,30.24,ENE,67,0.0,0.0,64,0.00,,,0.02,,2013-03-10 01:42:00,
2013-03-09 20:52:00,31.0,20.0,30.24,ENE,67,0.0,0.0,64,0.00,,,0.02,,2013-03-10 01:52:00,
2013-03-09 21:01:00,31.0,20.0,30.24,ENE,67,0.0,0.0,64,0.00,,,0.02,,2013-03-10 02:01:00,
2013-03-09 21:11:00,31.0,20.0,30.24,ENE,67,0.0,0.0,64,0.00,,,0.02,,2013-03-10 02:11:00,
2013-03-09 21:22:00,30.0,19.0,30.23,ENE,67,0.0,0.0,64,0.00,,,0.02,,2013-03-10 02:22:00,
2013-03-09 21:32:00,30.0,19.0,30.23,ENE,67,0.0,0.0,64,0.00,,,0.02,,2013-03-10 02:32:00,
2013-03-09 21:42:00,30.0,19.0,30.23,ENE,67,0.0,0.0,64,0.00,,,0.02,,2013-03-10 02:42:00,
2013-03-09 21:52:00,29.0,19.0,30.24,ENE,67,0.0,0.0,65,0.00,,,0.02,,2013-03-10 02:52:00,
2013-03-09 22:02:00,29.0,19.0,30.24,SE,135,0.0,3.0,65,0.00,,,0.02,,2013-03-10 03:02:00,
2013-03-09 22:11:00,29.0,19.0,30.23,SSE,157,0.0,2.0,65,0.00,,,0.02,,2013-03-10 03:11:00,
2013-03-09 22:22:00,29.0,19.0,30.23,SSE,157,0.0,2.0,65,0.00,,,0.02,,2013-03-10 03:22:00,
2013-03-09 22:32:00,29.0,19.0,30.23,South,180,0.0,4.0,66,0.00,,,0.02,,2013-03-10 03:32:00,
2013-03-09 22:42:00,29.0,19.0,30.23,South,180,0.0,4.0,66,0.00,,,0.02,,2013-03-10 03:42:00,
2013-03-09 22:52:00,29.0,19.0,30.23,SE,143,2.0,5.0,66,0.00,,,0.02,,2013-03-10 03:52:00,
2013-03-09 23:01:00,30.0,20.0,30.23,South,169,3.0,7.0,66,0.00,,,0.02,,2013-03-10 04:01:00,
2013-03-09 23:11:00,30.0,20.0,30.23,South,169,3.0,7.0,66,0.00,,,0.02,,2013-03-10 04:11:00,
2013-03-09 23:21:00,30.0,20.0,30.22,SE,144,3.0,5.0,65,0.00,,,0.02,,2013-03-10 04:21:00,
2013-03-09 23:32:00,31.0,20.0,30.23,SSE,147,3.0,10.0,64,0.00,,,0.02,,2013-03-10 04:32:00,
2013-03-09 23:42:00,31.0,20.0,30.23,SSE,147,3.0,10.0,64,0.00,,,0.02,,2013-03-10 04:42:00,
2013-03-09 23:52:00,32.0,20.0,30.22,SE,140,3.0,7.0,62,0.00,,,0.02,,2013-03-10 04:52:00,